This demonstration page uses our WeatherBlox Daily Observations layout. Learn more.

Left ArrowRight Arrow

44.31136, -96.79839

Hourly Observations for May 14, 2022

Temp ( °F °C ) Dew Point ( °F °C ) Humidity (%) Winds ( mph kmh ) Pressure ( in mb ) Visibility ( mi km ) Precip ( " mm )
12:56 am 00:56 Clear 53 11.7 44 6.7 72 72 SE 10 17 29.88 1012 10 16 0.00 0.00
1:56 am 01:56 Clear 52 11.1 44 6.7 75 75 SE 10 17 29.87 1012 10 16 0.00 0.00
2:56 am 02:56 Clear 49 9.4 43 6.1 80 80 S 6 9 29.87 1012 10 16 0.00 0.00
3:56 am 03:56 Clear 49 9.4 41 5 74 74 SSW 8 13 29.90 1013 10 16 0.00 0.00
4:56 am 04:56 Clear 51 10.6 41 5 69 69 WSW 9 15 29.90 1012 10 16 0.00 0.00
5:56 am 05:56 Clear 49 9.4 42 5.6 77 77 W 6 9 29.90 1013 10 16 0.00 0.00
6:56 am 06:56 Sunny 53 11.7 43 6.1 69 69 S 5 7 29.92 1013 10 16 0.00 0.00
7:56 am 07:56 Sunny 59 15 44 6.7 58 58 NW 15 24 29.95 1014 10 16 0.00 0.00
8:56 am 08:56 Sunny 57 13.9 41 5 55 55 NNW 24 39 30.03 1017 10 16 0.00 0.00
9:56 am 09:56 Sunny 59 15 40 4.4 49 49 NNW 15 24 30.04 1017 10 16 0.00 0.00
10:56 am 10:56 Sunny 62 16.7 41 5 46 46 VRB 5 7 30.04 1017 10 16 0.00 0.00
11:56 am 11:56 Sunny 65 18.3 42 5.6 43 43 W 14 22 30.03 1017 10 16 0.00 0.00
12:56 pm 12:56 Sunny 66 18.9 36 2.2 33 33 W 18 30 30.04 1017 10 16 0.00 0.00
1:56 pm 13:56 Sunny 67 19.4 36 2.2 32 32 W 15 24 30.03 1017 10 16 0.00 0.00
2:56 pm 14:56 Sunny 67 19.4 33 0.6 28 28 W 16 26 30.03 1017 10 16 0.00 0.00
3:56 pm 15:56 Sunny 69 20.6 34 1.1 27 27 W 20 31 30.01 1016 10 16 0.00 0.00
4:56 pm 16:56 Sunny 69 20.6 33 0.6 26 26 WNW 16 26 30.01 1016 10 16 0.00 0.00
5:56 pm 17:56 Sunny 69 20.6 35 1.7 29 29 WNW 23 37 29.99 1016 10 16 0.00 0.00
6:56 pm 18:56 Sunny 68 20 35 1.7 30 30 WNW 15 24 29.99 1016 10 16 0.00 0.00
7:56 pm 19:56 Sunny 63 17.2 37 2.8 38 38 WNW 10 17 30.00 1016 10 16 0.00 0.00
8:56 pm 20:56 Clear 56 13.3 36 2.2 47 47 WNW 5 7 30.02 1017 10 16 0.00 0.00
9:56 pm 21:56 Clear 53 11.7 38 3.3 57 57 Calm 30.04 1017 10 16 0.00 0.00
10:56 pm 22:56 Clear 51 10.6 37 2.8 59 59 SW 3 6 30.04 1017 10 16 0.00 0.00
11:56 pm 23:56 Clear 51 10.6 36 2.2 56 56 Calm 30.03 1017 10 16 0.00 0.00

Powered by AerisWeather